QPF
0.00 0.00 0.01 0.00 0.00 0.00 0.00 0.00 0.00 0.00 0.00 0.00 0.00 0.00 0.00 0.00 0.00 0.00 0.00 0.00 0.00 0.00 0.00 0.00 0.00 0.00 0.00 0.00 0.00 0.00 0.00 0.00
0.00 0.00 0.00 0.00 0.00 0.00 0.00 0.00 0.00 0.00 0.00 0.00 0.00 0.00 0.00 0.00 0.00 0.00 0.00 0.00 0.00 0.00 0.00 0.00 0.00 0.00 0.00 0.00 0.00 0.00 0.00 0.00
0.00 0.00 0.00 0.00 0.00 0.00 0.00 0.00 0.00 0.00 0.00 0.00 0.00 0.00 0.00 0.00 0.00 0.00 0.00 0.00 0.00 0.00 0.00 0.00 0.00 0.00 0.00 0.00 0.00 0.00 0.00 0.00
0.00 0.00 0.00 0.00 0.00 0.00 0.00 0.00 0.00 0.00 0.00 0.00 0.00 0.00 0.00 0.00 0.00 0.00 0.00 0.00 0.00 0.00 0.00 0.00 0.00 0.00 0.00 0.00 0.00 0.00 0.00 0.00
0.00 0.00 0.00 0.00 0.00 0.00 0.00 0.00 0.00 0.00 0.00 0.00 0.00 0.00 0.00 0.00 0.00 0.00 0.00 0.00 0.00 0.00 0.00 0.00 0.00 0.00 0.00 0.00 0.00 0.00 0.00 0.00
0.00 0.00 0.00 0.00 0.00 0.00 0.00 0.00 0.00 0.00 0.00 0.00 0.00 0.00 0.00 0.00 0.00 0.00 0.00 0.00 0.00 0.00 0.00 0.00 0.00 0.00 0.00 0.00 0.00 0.00 0.00 0.00
0.00 0.00 0.00 0.00 0.00 0.00 0.00 0.00 0.01 0.00 0.00 0.00 0.00 0.00 0.00 0.00 0.00 0.00 0.00 0.00 0.00 0.00 0.00 0.00 0.00 0.00 0.00 0.00 0.00 0.00 0.00 0.00
0.00 0.00 0.00 0.00 0.00 0.00 0.00 0.02 0.01 0.00 0.00 0.00 0.00 0.00 0.00 0.00 0.00 0.00 0.00 0.00 0.00 0.00 0.00 0.00 0.00 0.00 0.00 0.00 0.00 0.00 0.00 0.00
0.00 0.00 0.00 0.00 0.00 0.00 0.01 0.02 0.01 0.00 0.00 0.00 0.00 0.00 0.00 0.00 0.00 0.00 0.00 0.00 0.00 0.00 0.00 0.00 0.00 0.00 0.00 0.00 0.00 0.00 0.00 0.00
0.00 0.00 0.00 0.00 0.00 0.00 0.02 0.01 0.00 0.00 0.00 0.00 0.00 0.00 0.00 0.00 0.00 0.00 0.00 0.00 0.00 0.00 0.00 0.00 0.00 0.00 0.00 0.00 0.00 0.00 0.00 0.00
0.00 0.00 0.00 0.00 0.00 0.00 0.02 0.01 0.00 0.00 0.00 0.00 0.00 0.00 0.00 0.00 0.00 0.00 0.00 0.00 0.00 0.00 0.00 0.00 0.00 0.00 0.00 0.00 0.00 0.00 0.00 0.00
0.00 0.00 0.00 0.00 0.00 0.00 0.00 0.00 0.00 0.00 0.00 0.00 0.00 0.00 0.00 0.00 0.00 0.00 0.00 0.00 0.00 0.00 0.00 0.00 0.00 0.00 0.00 0.00 0.00 0.00 0.00 0.00
0.00 0.00 0.00 0.00 0.00 0.00 0.00 0.02 0.01 0.00 0.00 0.00 0.00 0.00 0.00 0.00 0.00 0.00 0.00 0.00 0.00 0.00 0.00 0.00 0.00 0.00 0.00 0.00 0.00 0.00 0.00 0.00
0.00 0.00 0.00 0.00 0.00 0.01 0.02 0.04 0.02 0.00 0.00 0.00 0.00 0.00 0.00 0.00 0.00 0.00 0.00 0.00 0.00 0.00 0.00 0.00 0.00 0.00 0.00 0.00 0.00 0.00 0.00 0.00
0.00 0.00 0.00 0.00 0.00 0.00 0.02 0.02 0.01 0.00 0.00 0.00 0.00 0.00 0.00 0.00 0.00 0.00 0.00 0.00 0.00 0.00 0.00 0.00 0.00 0.00 0.00 0.00 0.00 0.00 0.00 0.00
0.00 0.00 0.00 0.00 0.00 0.00 0.01 0.01 0.00 0.00 0.00 0.00 0.00 0.00 0.00 0.00 0.00 0.00 0.00 0.00 0.00 0.00 0.00 0.00 0.00 0.00 0.00 0.00 0.00 0.00 0.00 0.00
0.00 0.00 0.00 0.00 0.00 0.01 0.01 0.01 0.00 0.00 0.00 0.00 0.00 0.00 0.00 0.00 0.00 0.00 0.00 0.00 0.00 0.00 0.00 0.00 0.00 0.00 0.00 0.00 0.00 0.00 0.00 0.00
0.00 0.00 0.01 0.02 0.02 0.02 0.02 0.01 0.00 0.00 0.00 0.00 0.00 0.00 0.00 0.00 0.00 0.00 0.00 0.00 0.00 0.00 0.00 0.00 0.00 0.00 0.00 0.00 0.00 0.00 0.00 0.00
0.00 0.00 0.03 0.06 0.04 0.01 0.01 0.01 0.00 0.00 0.00 0.00 0.00 0.00 0.00 0.00 0.00 0.00 0.00 0.00 0.00 0.00 0.00 0.00 0.00 0.00 0.00 0.00 0.00 0.00 0.00 0.00
0.00 0.00 0.05 0.09 0.07 0.02 0.01 0.01 0.00 0.00 0.00 0.00 0.00 0.00 0.00 0.00 0.00 0.00 0.00 0.00 0.00 0.00 0.00 0.00 0.00 0.00 0.00 0.00 0.00 0.00 0.00 0.00
MSLP
1010.61 1010.88 1011.46 1012.02 1012.23 1012.71 1013.28 1013.35 1013.77 1014.15 1014.40 1014.74 1015.09 1015.35 1015.49 1015.91 1016.19 1016.10 1016.46 1016.78 1016.94 1017.09 1017.26 1017.22 1017.26 1017.15 1017.08 1017.07 1017.05 1017.04 1017.25 1017.29
1010.98 1011.12 1011.57 1012.19 1012.69 1012.84 1013.18 1013.81 1014.17 1014.45 1014.75 1015.04 1015.13 1015.28 1015.59 1015.89 1016.04 1016.31 1016.48 1016.79 1017.23 1017.32 1017.39 1017.47 1017.52 1017.55 1017.34 1017.35 1017.43 1017.51 1017.60 1017.59
1011.24 1011.73 1012.00 1012.27 1012.57 1012.83 1013.44 1014.12 1014.37 1014.64 1014.91 1015.10 1015.35 1015.53 1015.81 1016.18 1016.22 1016.34 1016.71 1016.99 1017.33 1017.63 1017.61 1017.76 1017.88 1017.86 1017.75 1017.67 1017.73 1017.83 1017.76 1017.81
1011.09 1011.60 1012.23 1012.44 1012.70 1012.94 1013.21 1013.64 1014.06 1014.53 1014.96 1015.38 1015.68 1015.85 1016.12 1016.24 1016.33 1016.74 1017.05 1017.36 1017.61 1017.76 1017.89 1018.02 1018.12 1018.30 1018.38 1018.17 1018.21 1018.14 1018.10 1018.06
1011.00 1011.30 1011.81 1012.37 1012.81 1013.58 1013.82 1013.97 1014.37 1014.67 1014.98 1015.35 1015.70 1016.00 1016.15 1016.53 1016.79 1017.20 1017.52 1017.82 1018.21 1018.25 1018.32 1018.45 1018.50 1018.60 1018.71 1018.63 1018.51 1018.50 1018.60 1018.43
1010.97 1011.09 1011.74 1012.51 1013.06 1013.66 1014.35 1014.33 1014.74 1015.11 1015.36 1015.78 1016.14 1016.61 1016.85 1016.92 1017.08 1017.22 1017.67 1018.20 1018.45 1018.53 1018.67 1018.72 1018.65 1018.67 1018.69 1018.71 1018.81 1018.79 1018.69 1018.58
1011.23 1011.31 1011.65 1012.32 1012.95 1013.52 1013.97 1014.44 1014.78 1015.07 1015.56 1015.81 1016.10 1016.74 1017.28 1017.57 1017.66 1017.70 1017.80 1018.10 1018.51 1018.76 1018.77 1018.75 1018.84 1018.89 1018.92 1018.98 1018.99 1018.94 1018.84 1018.87
1010.33 1011.17 1011.58 1011.99 1012.54 1013.35 1013.69 1014.02 1014.52 1014.99 1015.31 1015.76 1016.00 1016.33 1017.05 1017.42 1018.04 1018.05 1018.25 1018.22 1018.50 1018.76 1018.84 1018.93 1019.18 1019.23 1019.18 1019.07 1019.15 1019.04 1019.10 1019.16
1009.44 1010.23 1011.06 1011.81 1012.42 1013.03 1013.47 1013.85 1014.35 1014.88 1015.38 1015.77 1016.23 1016.51 1016.83 1017.28 1017.62 1018.33 1018.54 1018.53 1018.58 1018.77 1018.97 1019.19 1019.52 1019.56 1019.69 1019.56 1019.38 1019.34 1019.45 1019.62
1008.75 1009.63 1010.42 1011.08 1012.00 1012.62 1013.20 1013.64 1014.22 1014.80 1015.46 1015.72 1016.18 1016.69 1016.95 1017.39 1017.67 1018.17 1018.69 1018.86 1018.96 1019.15 1019.41 1019.86 1020.09 1020.05 1020.12 1020.13 1020.08 1019.90 1020.08 1020.18
1008.14 1009.02 1009.78 1010.68 1011.79 1012.56 1013.19 1013.80 1014.17 1014.75 1015.70 1015.60 1016.19 1016.54 1016.90 1017.13 1017.66 1018.11 1018.52 1019.04 1019.29 1019.49 1019.88 1020.28 1020.63 1020.47 1020.46 1020.64 1020.68 1020.80 1020.96 1020.90
1007.78 1008.58 1009.44 1010.48 1011.55 1012.39 1013.11 1013.83 1014.43 1014.89 1015.64 1015.68 1016.05 1016.59 1016.80 1017.22 1017.58 1018.22 1018.49 1019.09 1019.59 1019.94 1020.40 1020.75 1020.97 1020.74 1020.69 1021.13 1021.31 1021.51 1021.55 1021.75
1006.65 1007.88 1008.93 1009.87 1010.73 1011.58 1012.51 1013.21 1014.31 1015.12 1015.61 1015.83 1016.17 1016.54 1016.75 1017.23 1017.79 1018.28 1018.83 1019.17 1019.68 1020.15 1020.61 1021.02 1021.23 1021.16 1021.06 1021.80 1021.87 1021.99 1022.04 1022.19
1005.96 1006.87 1007.95 1009.03 1010.07 1010.96 1011.78 1012.84 1014.02 1014.70 1015.42 1015.86 1016.29 1016.70 1016.91 1017.10 1017.84 1018.43 1019.04 1019.55 1019.85 1020.04 1020.31 1020.85 1021.27 1021.25 1021.23 1021.71 1022.19 1022.46 1022.53 1022.49
1004.23 1005.33 1006.66 1008.00 1009.08 1010.55 1011.83 1012.99 1014.02 1014.70 1015.33 1015.81 1016.06 1016.80 1017.10 1017.11 1017.82 1018.52 1019.22 1019.78 1020.02 1020.02 1020.19 1020.35 1020.99 1021.54 1021.22 1021.27 1022.21 1022.50 1023.04 1022.90
1003.34 1004.50 1005.68 1006.97 1008.23 1009.48 1010.50 1011.46 1012.76 1013.70 1014.51 1015.32 1015.77 1016.39 1017.31 1017.55 1017.84 1018.33 1019.01 1019.83 1020.27 1020.26 1020.31 1020.33 1020.57 1021.14 1021.53 1021.59 1021.75 1022.27 1022.87 1023.04
1002.30 1003.79 1005.11 1006.37 1007.60 1008.81 1010.11 1011.50 1012.53 1013.40 1014.61 1015.51 1016.14 1016.48 1017.43 1017.41 1018.02 1018.31 1018.94 1019.66 1020.42 1020.59 1020.76 1020.88 1020.61 1021.25 1021.65 1022.27 1022.67 1022.73 1022.42 1022.75
1002.46 1003.46 1004.43 1005.63 1006.58 1007.93 1009.23 1010.52 1011.68 1013.22 1014.37 1015.16 1015.89 1016.44 1017.36 1017.72 1018.45 1018.49 1018.94 1019.64 1020.52 1021.03 1021.19 1021.50 1021.33 1021.76 1022.00 1022.23 1022.54 1022.79 1022.90 1023.12
1001.63 1002.51 1003.73 1005.01 1006.09 1007.45 1007.89 1008.47 1010.81 1012.21 1013.38 1014.36 1015.48 1016.30 1017.31 1017.68 1018.89 1018.85 1019.06 1019.67 1020.55 1021.14 1021.59 1021.83 1022.01 1022.29 1022.69 1022.91 1022.78 1022.93 1023.06 1023.02
1000.66 1001.78 1003.10 1004.55 1005.70 1007.15 1008.16 1009.07 1010.30 1011.65 1012.66 1013.88 1014.96 1015.75 1016.67 1017.21 1018.92 1019.12 1019.20 1019.80 1020.55 1021.01 1021.89 1022.05 1022.51 1022.78 1023.08 1023.21 1023.56 1023.56 1023.26 1023.42
Thickness
5739 5734 5727 5721 5718 5713 5706 5704 5700 5697 5695 5692 5689 5686 5683 5679 5676 5677 5673 5668 5666 5666 5665 5665 5664 5665 5666 5666 5665 5665 5665 5664
5730 5727 5721 5714 5708 5706 5702 5695 5692 5689 5687 5685 5684 5682 5679 5675 5673 5670 5669 5665 5660 5660 5660 5660 5659 5658 5660 5660 5660 5659 5659 5659
5721 5716 5711 5708 5704 5701 5695 5688 5685 5682 5680 5679 5677 5677 5674 5670 5667 5666 5662 5659 5655 5653 5654 5653 5652 5652 5653 5654 5654 5654 5654 5654
5716 5710 5703 5700 5696 5694 5694 5689 5685 5680 5676 5673 5671 5670 5667 5664 5662 5657 5655 5652 5650 5647 5646 5646 5647 5646 5645 5647 5647 5647 5647 5647
5710 5706 5700 5694 5689 5684 5683 5681 5677 5675 5671 5669 5666 5663 5662 5658 5655 5651 5647 5644 5642 5641 5640 5638 5638 5638 5638 5639 5640 5639 5637 5637
5703 5701 5694 5686 5680 5676 5670 5671 5668 5665 5662 5659 5656 5652 5649 5649 5647 5646 5641 5636 5634 5634 5632 5631 5631 5631 5631 5631 5629 5629 5630 5630
5693 5692 5687 5680 5675 5670 5667 5663 5661 5658 5654 5652 5649 5644 5638 5635 5635 5634 5634 5630 5627 5625 5625 5625 5624 5623 5623 5622 5621 5621 5620 5620
5693 5685 5679 5675 5672 5664 5662 5660 5655 5651 5649 5646 5644 5642 5634 5631 5624 5624 5623 5623 5620 5617 5617 5617 5615 5614 5614 5614 5613 5613 5610 5609
5692 5685 5675 5668 5663 5659 5655 5653 5649 5644 5642 5639 5634 5632 5629 5626 5622 5614 5612 5612 5612 5610 5609 5607 5605 5604 5603 5603 5603 5601 5599 5597
5688 5681 5673 5667 5659 5654 5650 5646 5641 5638 5633 5632 5627 5622 5620 5617 5614 5610 5603 5602 5601 5600 5598 5594 5593 5593 5591 5590 5589 5589 5586 5584
5684 5677 5670 5662 5651 5646 5641 5636 5634 5630 5622 5624 5620 5616 5613 5611 5606 5602 5598 5593 5590 5589 5586 5583 5580 5581 5580 5577 5575 5573 5569 5567
5676 5670 5663 5654 5644 5638 5632 5626 5624 5621 5615 5614 5612 5607 5605 5602 5599 5592 5589 5585 5581 5578 5574 5571 5568 5569 5569 5563 5559 5556 5554 5551
5678 5666 5657 5648 5642 5635 5627 5623 5614 5609 5606 5604 5601 5598 5597 5593 5588 5583 5578 5575 5572 5568 5564 5560 5556 5555 5556 5549 5545 5541 5539 5537
5674 5666 5655 5647 5638 5630 5624 5615 5605 5601 5595 5594 5591 5587 5586 5585 5578 5573 5568 5562 5561 5560 5558 5552 5547 5546 5545 5539 5536 5531 5525 5523
5679 5668 5656 5646 5637 5625 5613 5603 5595 5590 5588 5585 5583 5576 5575 5575 5569 5564 5557 5552 5549 5550 5549 5547 5539 5534 5534 5535 5524 5527 5508 5510
5677 5667 5655 5646 5634 5622 5613 5607 5597 5591 5585 5577 5575 5569 5563 5561 5559 5555 5549 5541 5536 5537 5536 5534 5532 5529 5523 5521 5516 5510 5503 5504
5676 5665 5653 5643 5630 5618 5605 5594 5586 5580 5571 5564 5561 5559 5551 5551 5547 5546 5541 5533 5526 5523 5520 5520 5523 5518 5513 5506 5501 5496 5495 5489
5664 5658 5650 5639 5629 5616 5601 5592 5582 5570 5562 5558 5553 5548 5540 5538 5534 5534 5530 5523 5515 5509 5507 5507 5509 5505 5501 5497 5491 5486 5483 5477
5657 5652 5643 5631 5621 5609 5604 5598 5578 5568 5559 5553 5545 5539 5531 5529 5519 5521 5518 5512 5504 5497 5496 5496 5495 5491 5486 5481 5479 5475 5472 5469
5652 5644 5634 5622 5613 5601 5590 5585 5571 5563 5555 5545 5538 5533 5526 5522 5509 5507 5506 5500 5493 5490 5486 5485 5481 5477 5473 5469 5464 5461 5461 5458